KD5UMO-1 Weather Reports


time (UTC)temp
F
wind
direction
speed
knots
gust
knots
rain 1hr
in
rain 24hr
in
rain mn
in
humidity
%
barometer
mb
20260506024917 68 9 5.2 6.1 0.00 0.00 0.00 76 1008.4
20260506024414 69 3 1.7 7.8 0.00 0.00 0.00 76 1008.1
20260506023910 69 21 4.3 8.7 0.00 0.00 0.00 75 1007.9
20260506023407 69 27 2.6 6.1 0.00 0.00 0.00 75 1007.7
20260506022904 69 359 0.0 5.2 0.00 0.00 0.00 75 1007.6
20260506022402 69 74 1.7 3.5 0.00 0.00 0.00 75 1007.4
20260506021859 70 347 2.6 5.2 0.00 0.00 0.00 75 1007.4
20260506021356 70 19 0.9 7.0 0.00 0.00 0.00 75 1007.2
20260506020853 70 71 2.6 7.8 0.00 0.00 0.00 74 1007.0
20260506020351 71 29 2.6 6.1 0.00 0.00 0.00 74 1006.7
20260506015848 72 323 0.0 6.1 0.00 0.00 0.00 73 1006.7
20260506015345 72 77 0.9 4.3 0.00 0.00 0.00 72 1006.9
20260506014842 73 359 0.9 3.5 0.00 0.00 0.00 72 1006.9
20260506014339 73 343 3.5 6.1 0.00 0.00 0.00 71 1006.7
20260506013835 73 69 0.9 5.2 0.00 0.00 0.00 71 1006.5
20260506013333 73 359 1.7 3.5 0.00 0.00 0.00 70 1006.4
20260506012829 73 323 1.7 3.5 0.00 0.00 0.00 70 1006.5
20260506012326 73 354 1.7 4.3 0.00 0.00 0.00 70 1006.5
20260506011824 73 60 2.6 2.6 0.00 0.00 0.00 70 1006.6
20260506011320 73 325 1.7 3.5 0.00 0.00 0.00 69 1006.4
20260506010818 73 36 3.5 4.3 0.00 0.00 0.00 68 1006.0
20260506010315 74 114 0.9 4.3 0.00 0.00 0.00 69 1006.2
20260506005812 74 338 6.1 7.8 0.00 0.00 0.00 69 1005.8
20260506005309 74 139 0.9 5.2 0.00 0.00 0.00 69 1005.5
20260506004805 74 9 1.7 7.0 0.00 0.00 0.00 69 1005.6
20260506004303 74 75 1.7 6.1 0.00 0.00 0.00 69 1005.9
20260506003759 75 328 2.6 4.3 0.00 0.00 0.00 69 1005.7
20260506003256 75 99 0.9 3.5 0.00 0.00 0.00 68 1005.8
20260506002751 75 359 1.7 5.2 0.00 0.00 0.00 67 1005.7
20260506002248 75 9 0.9 5.2 0.00 0.00 0.00 67 1005.8
20260506001743 76 324 2.6 13.0 0.00 0.00 0.00 67 1005.7
20260506001241 77 347 3.5 5.2 0.00 0.00 0.00 66 1005.7
20260506000738 78 65 0.0 5.2 0.00 0.00 0.00 64 1005.5
20260506000235 78 70 1.7 5.2 0.00 0.00 0.00 64 1005.3
20260505235732 78 352 0.9 3.5 0.00 0.00 0.00 64 1005.0
20260505235230 79 76 1.7 2.6 0.00 0.00 0.00 64 1005.1
20260505234727 79 336 0.0 8.7 0.00 0.00 0.00 63 1004.8
20260505234224 80 22 1.7 5.2 0.00 0.00 0.00 62 1005.0
20260505233720 81 77 2.6 5.2 0.00 0.00 0.00 62 1005.0
20260505233219 81 5 4.3 7.8 0.00 0.00 0.00 61 1004.9
20260505232715 82 262 1.7 5.2 0.00 0.00 0.00 60 1005.0
20260505232213 83 327 2.6 8.7 0.00 0.00 0.00 59 1004.8
20260505231710 84 327 4.3 4.3 0.00 0.00 0.00 55 1004.7
20260505231209 85 281 2.6 4.3 0.00 0.00 0.00 53 1004.6
20260505230706 85 240 1.7 5.2 0.00 0.00 0.00 52 1004.4
20260505230203 85 7 1.7 4.3 0.00 0.00 0.00 52 1004.2
20260505225659 86 299 1.7 7.8 0.00 0.00 0.00 50 1004.2
20260505225156 86 48 1.7 10.4 0.00 0.00 0.00 49 1004.0
20260505224651 87 350 1.7 7.8 0.00 0.00 0.00 49 1004.1
20260505224150 89 256 4.3 7.8 0.00 0.00 0.00 47 1004.1
20260505223647 91 266 4.3 5.2 0.00 0.00 0.00 49 1004.0
20260505223142 90 208 2.6 3.5 0.00 0.00 0.00 50 1003.6
20260505222638 91 187 1.7 4.3 0.00 0.00 0.00 50 1003.5
20260505222135 91 254 1.7 3.5 0.00 0.00 0.00 50 1003.6
20260505221632 92 242 0.0 1.7 0.00 0.00 0.00 51 1003.7
20260505221128 91 269 0.0 5.2 0.00 0.00 0.00 53 1003.7
20260505220626 91 204 1.7 7.8 0.00 0.00 0.00 52 1003.5
20260505220123 89 241 2.6 4.3 0.00 0.00 0.00 53 1003.7
20260505215621 90 241 2.6 4.3 0.00 0.00 0.00 53 1003.9
20260505215119 90 304 0.0 5.2 0.00 0.00 0.00 53 1003.8
20260505214617 91 241 7.0 7.8 0.00 0.00 0.00 51 1003.8
20260505214114 90 177 1.7 9.6 0.00 0.00 0.00 53 1003.8
20260505213611 89 246 2.6 9.6 0.00 0.00 0.00 54 1003.9
20260505213107 90 223 3.5 4.3 0.00 0.00 0.00 51 1004.1
20260505212603 90 238 3.5 10.4 0.00 0.00 0.00 53 1004.2
20260505212101 91 208 3.5 4.3 0.00 0.00 0.00 52 1004.1
20260505211553 89 204 1.7 7.8 0.00 0.00 0.00 54 1004.4
20260505211050 91 266 6.1 6.1 0.00 0.00 0.00 52 1004.1
20260505210546 91 220 3.5 6.1 0.00 0.00 0.00 51 1004.3
20260505210044 89 207 4.3 7.8 0.00 0.00 0.00 55 1004.1
20260505205541 89 227 9.6 9.6 0.00 0.00 0.00 56 1004.2
20260505205038 89 234 1.7 7.0 0.00 0.00 0.00 57 1004.3
20260505204536 88 228 1.7 5.2 0.00 0.00 0.00 59 1004.4
20260505204033 87 200 3.5 9.6 0.00 0.00 0.00 59 1004.4
20260505203529 88 187 5.2 9.6 0.00 0.00 0.00 58 1004.7
20260505203027 90 240 3.5 4.3 0.00 0.00 0.00 57 1004.7
20260505202523 89 239 6.1 13.0 0.00 0.00 0.00 58 1004.7
20260505202019 88 226 1.7 6.1 0.00 0.00 0.00 60 1004.8
20260505201516 88 112 1.7 10.4 0.00 0.00 0.00 60 1004.6
20260505201013 87 220 1.7 6.1 0.00 0.00 0.00 60 1004.7
20260505200511 87 219 7.0 7.8 0.00 0.00 0.00 60 1004.6
20260505200008 88 171 4.3 4.3 0.00 0.00 0.00 58 1004.8
20260505195503 87 231 5.2 9.6 0.00 0.00 0.00 61 1004.6
20260505195001 87 215 3.5 7.8 0.00 0.00 0.00 60 1004.7
20260505194458 87 244 1.7 5.2 0.00 0.00 0.00 60 1004.6
20260505193958 87 211 7.0 8.7 0.00 0.00 0.00 60 1005.0
20260505193456 87 221 1.7 8.7 0.00 0.00 0.00 61 1005.0
20260505192953 87 223 6.1 11.3 0.00 0.00 0.00 61 1004.8
20260505192452 85 226 2.6 9.6 0.00 0.00 0.00 63 1004.8
20260505191948 86 239 4.3 13.9 0.00 0.00 0.00 63 1004.8
20260505191447 86 199 2.6 9.6 0.00 0.00 0.00 63 1004.9
20260505190943 86 164 0.9 4.3 0.00 0.00 0.00 63 1004.8
20260505190438 86 197 1.7 7.0 0.00 0.00 0.00 62 1004.8
20260505185934 85 30 0.9 5.2 0.00 0.00 0.00 65 1005.0
20260505185432 84 193 6.1 11.3 0.00 0.00 0.00 66 1005.0
20260505184928 84 200 1.7 7.8 0.00 0.00 0.00 65 1005.0
20260505184425 84 220 2.6 8.7 0.00 0.00 0.00 66 1005.1
20260505183922 83 275 3.5 12.2 0.00 0.00 0.00 66 1005.0
20260505183419 84 210 3.5 9.6 0.00 0.00 0.00 66 1005.2
20260505182915 84 220 7.8 13.9 0.00 0.00 0.00 66 1005.0
20260505182412 84 208 6.1 9.6 0.00 0.00 0.00 66 1005.0
20260505181908 84 204 5.2 5.2 0.00 0.00 0.00 66 1005.1
20260505181406 83 226 1.7 8.7 0.00 0.00 0.00 67 1005.3
20260505180903 83 216 4.3 8.7 0.00 0.00 0.00 67 1005.1
20260505180359 84 223 6.1 7.0 0.00 0.00 0.00 66 1005.2
20260505175856 83 226 4.3 13.0 0.00 0.00 0.00 68 1005.0
20260505175352 82 245 3.5 16.5 0.00 0.00 0.00 68 1005.0
20260505174848 83 170 1.7 7.8 0.00 0.00 0.00 68 1005.0
20260505174346 83 197 3.5 6.1 0.00 0.00 0.00 67 1005.1
20260505173842 82 128 1.7 12.2 0.00 0.00 0.00 69 1005.3
20260505173334 82 247 3.5 11.3 0.00 0.00 0.00 69 1005.1
20260505172831 81 209 5.2 13.9 0.00 0.00 0.00 69 1005.3
20260505172328 81 231 9.6 13.9 0.00 0.00 0.00 69 1005.4
20260505171827 81 225 6.1 8.7 0.00 0.00 0.00 70 1005.2
20260505171324 81 230 7.8 11.3 0.00 0.00 0.00 70 1005.3
20260505170821 80 218 3.5 9.6 0.00 0.00 0.00 71 1005.3
20260505170318 80 240 0.9 7.8 0.00 0.00 0.00 71 1005.4
20260505165813 81 197 3.5 5.2 0.00 0.00 0.00 70 1005.5
20260505165309 80 215 6.1 12.2 0.00 0.00 0.00 71 1005.3
20260505164804 80 181 1.7 10.4 0.00 0.00 0.00 71 1005.3
20260505164302 79 221 4.3 8.7 0.00 0.00 0.00 72 1005.2
20260505163800 79 226 4.3 13.0 0.00 0.00 0.00 72 1005.2
20260505163258 80 255 2.6 4.3 0.00 0.00 0.00 71 1005.1
20260505162756 79 216 3.5 14.8 0.00 0.00 0.00 72 1005.0
20260505162252 79 217 4.3 14.8 0.00 0.00 0.00 72 1005.2
20260505161749 79 247 3.5 11.3 0.00 0.00 0.00 73 1005.2
20260505161247 78 203 2.6 12.2 0.00 0.00 0.00 73 1005.3
20260505160744 78 215 5.2 16.5 0.00 0.00 0.00 73 1005.2
20260505160242 78 226 3.5 12.2 0.00 0.00 0.00 73 1005.2
20260505153221 78 211 3.5 13.0 0.00 0.00 0.00 74 1004.8
20260505152718 78 168 3.5 9.6 0.00 0.00 0.00 75 1004.6
20260505152214 77 220 3.5 10.4 0.00 0.00 0.00 75 1004.9
20260505151709 77 209 1.7 11.3 0.00 0.00 0.00 76 1004.9
20260505151206 76 216 4.3 7.0 0.00 0.00 0.00 77 1005.1
20260505150702 76 238 5.2 13.0 0.00 0.00 0.00 77 1005.1
20260505150201 76 216 4.3 13.9 0.00 0.00 0.00 77 1005.0
20260505140633 74 123 1.7 6.1 0.00 0.00 0.00 81 1005.0
20260505140130 74 221 3.5 9.6 0.00 0.00 0.00 81 1005.0
20260505124544 72 252 3.5 4.3 0.00 0.00 0.00 83 1004.7
20260505124040 72 212 7.0 7.8 0.00 0.00 0.00 83 1004.6
20260505123537 72 219 1.7 5.2 0.00 0.00 0.00 84 1004.5
20260505123033 72 187 1.7 6.1 0.00 0.00 0.00 83 1004.2
20260505122530 72 212 4.3 9.6 0.00 0.00 0.00 83 1004.3
20260505122027 72 209 7.0 11.3 0.00 0.00 0.00 83 1004.3
20260505121523 72 224 4.3 9.6 0.00 0.00 0.00 83 1004.4
20260505121020 72 222 5.2 11.3 0.00 0.00 0.00 83 1004.3
20260505120516 73 188 3.5 9.6 0.00 0.00 0.00 82 1004.1
20260505120012 72 214 3.5 7.0 0.00 0.00 0.00 83 1004.1
20260505115507 73 206 3.5 11.3 0.00 0.00 0.00 82 1004.2
20260505115005 72 72 2.6 10.4 0.00 0.00 0.00 82 1003.9
20260505114502 72 221 2.6 6.1 0.00 0.00 0.00 83 1003.8
20260505113958 72 233 7.0 8.7 0.00 0.00 0.00 83 1003.8
20260505113455 72 214 8.7 12.2 0.00 0.00 0.00 82 1003.9
20260505112950 72 204 1.7 5.2 0.00 0.00 0.00 82 1004.0
20260505112447 72 225 4.3 13.9 0.00 0.00 0.00 82 1004.0
20260505111944 72 166 2.6 12.2 0.00 0.00 0.00 82 1003.6
20260505111438 72 220 12.2 13.0 0.00 0.00 0.00 82 1003.9
20260505110935 72 153 4.3 11.3 0.00 0.00 0.00 82 1004.2
20260505110432 72 230 4.3 11.3 0.00 0.00 0.00 83 1004.1
20260505101903 72 224 3.5 6.1 0.00 0.00 0.00 83 1004.0
20260505101358 72 227 2.6 8.7 0.00 0.00 0.00 83 1004.0
20260505100854 72 190 2.6 7.0 0.00 0.00 0.00 83 1004.0
20260505100350 72 198 2.6 6.1 0.00 0.00 0.00 83 1004.0
20260505095846 72 204 6.1 16.5 0.00 0.00 0.00 83 1004.0
20260505095344 72 120 3.5 8.7 0.00 0.00 0.00 83 1004.1
20260505094839 72 169 3.5 4.3 0.00 0.00 0.00 83 1004.1
20260505094337 72 201 1.7 8.7 0.00 0.00 0.00 83 1004.1
20260505093832 72 208 1.7 14.8 0.00 0.00 0.00 83 1004.2
20260505093330 72 215 7.0 7.8 0.00 0.00 0.00 83 1004.2
20260505092827 72 17 2.6 4.3 0.00 0.00 0.00 83 1004.2
20260505092325 71 353 1.7 5.2 0.00 0.00 0.00 84 1004.4
20260505091822 72 230 4.3 7.0 0.00 0.00 0.00 83 1004.6
20260505091320 72 196 2.6 5.2 0.00 0.00 0.00 83 1004.4
20260505090818 72 235 2.6 9.6 0.00 0.00 0.00 83 1004.5
20260505090316 71 210 3.5 8.7 0.00 0.00 0.00 84 1004.5
20260505085813 71 204 5.2 6.1 0.00 0.00 0.00 84 1004.4
20260505085311 71 181 3.5 6.1 0.00 0.00 0.00 84 1004.4
20260505084808 71 180 4.3 7.8 0.00 0.00 0.00 84 1004.4
20260505084307 71 230 1.7 7.8 0.00 0.00 0.00 84 1004.3
20260505083803 71 191 1.7 5.2 0.00 0.00 0.00 84 1004.4
20260505083300 71 232 9.6 10.4 0.00 0.00 0.00 84 1004.3
20260505082756 71 193 4.3 7.8 0.00 0.00 0.00 84 1004.3
20260505082254 71 170 3.5 7.0 0.00 0.00 0.00 83 1004.5
20260505081749 71 159 1.7 9.6 0.00 0.00 0.00 83 1004.6
20260505081247 71 208 1.7 8.7 0.00 0.00 0.00 83 1004.5
20260505080744 71 152 3.5 4.3 0.00 0.00 0.00 83 1004.5
20260505080239 71 136 0.9 4.3 0.00 0.00 0.00 82 1004.5
20260505075735 72 163 4.3 4.3 0.00 0.00 0.00 82 1004.7
20260505075232 72 152 0.9 6.1 0.00 0.00 0.00 82 1004.7
20260505074730 72 233 3.5 7.8 0.00 0.00 0.00 82 1004.7
20260505074227 72 187 4.3 9.6 0.00 0.00 0.00 81 1004.8
20260505073724 72 167 2.6 4.3 0.00 0.00 0.00 81 1004.9
20260505073222 72 176 1.7 7.8 0.00 0.00 0.00 81 1004.9
20260505072718 72 257 1.7 6.1 0.00 0.00 0.00 80 1005.1
20260505072214 72 227 12.2 13.0 0.00 0.00 0.00 80 1005.1
20260505071710 72 229 4.3 11.3 0.00 0.00 0.00 80 1005.2
20260505071207 72 230 3.5 4.3 0.00 0.00 0.00 80 1005.2
20260505070705 73 246 2.6 8.7 0.00 0.00 0.00 79 1005.2
20260505070201 73 216 4.3 7.0 0.00 0.00 0.00 79 1005.4
20260505065657 72 244 2.6 8.7 0.00 0.00 0.00 79 1005.5
20260505065154 73 206 5.2 7.8 0.00 0.00 0.00 79 1005.6
20260505064651 72 189 1.7 3.5 0.00 0.00 0.00 78 1005.6
20260505064149 72 143 2.6 5.2 0.00 0.00 0.00 78 1005.6
20260505063646 72 75 1.7 4.3 0.00 0.00 0.00 78 1005.7
20260505063142 72 149 2.6 5.2 0.00 0.00 0.00 78 1005.8
20260505062638 73 181 2.6 9.6 0.00 0.00 0.00 78 1005.8
20260505062136 73 277 0.9 4.3 0.00 0.00 0.00 78 1005.7
20260505061633 73 173 3.5 5.2 0.00 0.00 0.00 77 1005.6
20260505061131 73 119 3.5 5.2 0.00 0.00 0.00 77 1005.8
20260505060628 73 234 3.5 4.3 0.00 0.00 0.00 77 1005.7
20260505060125 73 332 1.7 7.8 0.00 0.00 0.00 77 1005.8
20260505055620 73 190 3.5 10.4 0.00 0.00 0.00 76 1005.8
20260505055117 73 149 7.0 10.4 0.00 0.00 0.00 76 1005.6
20260505054614 73 202 0.9 6.1 0.00 0.00 0.00 76 1005.9
20260505054112 73 181 3.5 8.7 0.00 0.00 0.00 76 1005.8
20260505053609 73 163 2.6 4.3 0.00 0.00 0.00 75 1005.8
20260505053106 73 256 0.0 4.3 0.00 0.00 0.00 75 1005.9
20260505052603 73 172 3.5 7.0 0.00 0.00 0.00 75 1006.0
20260505052100 73 156 4.3 7.8 0.00 0.00 0.00 74 1005.9
20260505051557 73 197 2.6 8.7 0.00 0.00 0.00 74 1006.1
20260505051055 74 178 3.5 7.8 0.00 0.00 0.00 74 1006.1
20260505050553 74 210 1.7 9.6 0.00 0.00 0.00 73 1006.3
20260505041521 74 178 2.6 6.1 0.00 0.00 0.00 71 1006.2
20260505041018 74 241 2.6 6.1 0.00 0.00 0.00 71 1006.4
20260505040515 74 195 1.7 5.2 0.00 0.00 0.00 71 1006.4
20260505040012 75 285 1.7 7.0 0.00 0.00 0.00 71 1006.3
20260505035508 75 241 1.7 7.8 0.00 0.00 0.00 70 1006.3
20260505035005 75 147 3.5 7.8 0.00 0.00 0.00 70 1006.3
20260505034501 75 215 3.5 6.1 0.00 0.00 0.00 70 1006.2
20260505033959 75 223 1.7 4.3 0.00 0.00 0.00 70 1006.0
20260505033455 75 179 1.7 7.8 0.00 0.00 0.00 69 1006.3
20260505032954 75 225 0.0 3.5 0.00 0.00 0.00 69 1006.4
20260505032451 75 180 1.7 7.0 0.00 0.00 0.00 69 1006.5
20260505031947 75 138 3.5 4.3 0.00 0.00 0.00 69 1006.2
20260505031444 75 207 0.0 3.5 0.00 0.00 0.00 69 1006.3
20260505030941 75 158 2.6 5.2 0.00 0.00 0.00 69 1006.4
20260505030437 75 212 2.6 5.2 0.00 0.00 0.00 69 1006.4
20260505025932 75 163 3.5 7.0 0.00 0.00 0.00 68 1006.4
20260505025430 75 208 3.5 5.2 0.00 0.00 0.00 68 1006.4